[[{"header":{"parameterUnit":"m.s-1","parameterCategory":1,"la1":30.2991,"la2":30.254,"lo1":-89.0895,"lo2":-89.0444,"dy":0.0017,"dx":0.0017,"nx":28,"ny":28,"refTime":"2025-04-19T09:00:00:Z","depth":0,"parameterNumber":2,"parameterNumberName":"U-component_of_WINDS"},"data":[0,0,0,0,0,0,0,0,0,0,0,0,0,0,0,0,0,0,0,0,0,0,0,0,0,0,0,0,0,0,0,0,0,0,0,0,0,0,0,0,0,0,0,0,0,0,0,0,0,0,0,0,0,0,0,0,0,0,-4.5952,-4.5953,0,-4.6059,-4.6061,-4.6062,-4.6051,-4.605,-4.6048,-4.6046,-4.6155,-4.616,-4.6164,0,0,0,0,0,0,0,0,0,0,0,0,0,-4.5737,-4.5741,-4.5952,-4.5953,-4.5955,-4.6059,-4.6061,-4.6062,-4.6052,-4.605,-4.6048,-4.6046,-4.6154,-4.6159,-4.6164,0,0,0,0,0,0,0,0,0,0,0,0,0,-4.5836,-4.5743,-4.5952,-4.5962,-4.5964,-4.6059,-4.6061,-4.6062,-4.6052,-4.605,-4.6047,-4.6045,-4.6152,-4.6159,-4.6165,-4.6256,0,0,-4.6186,-4.6188,0,0,0,0,0,0,0,0,-4.5831,-4.5844,-4.5959,-4.5962,-4.5964,-4.6039,-4.6025,-4.6127,-4.6053,-4.6019,-4.6046,-4.6043,-4.6119,-4.6128,-4.6154,-4.6261,-4.6266,-4.6186,-4.619,-4.6193,-4.6195,0,0,0,0,0,0,0,-4.5824,-4.5839,-4.5994,-4.5961,-4.5964,-4.5961,-4.5972,-4.6044,-4.6081,-4.6021,-4.6021,-4.6034,-4.6119,-4.6147,-4.6156,-4.6268,-4.6186,-4.6192,-4.6196,-4.6199,-4.6455,-4.6458,0,0,0,0,0,0,-4.5815,-4.5834,-4.5991,-4.5998,-4.589,-4.5967,-4.598,-4.6018,-4.6081,-4.6088,-4.6036,-4.6033,-4.6137,-4.6148,-4.616,-4.627,-4.6193,-4.6199,-4.6203,-4.6452,-4.6455,-4.6459,0,0,0,0,0,0,-4.581,-4.5829,-4.5987,-4.5916,-4.5936,-4.5973,-4.6016,-4.6021,-4.6049,-4.6091,-4.6098,-4.6057,-4.6135,-4.615,-4.6232,-4.6273,-4.6202,-4.6208,-4.6449,-4.6453,-4.6457,-4.6491,0,0,0,0,0,0,-4.5804,-4.5827,-4.5862,-4.5917,-4.5939,-4.6058,-4.6019,-4.6025,-4.606,-4.6058,-4.6113,-4.612,-4.6135,-4.6222,-4.6239,-4.6281,-4.6214,-4.6445,-4.6451,-4.6456,-4.6486,-4.6496,-4.6504,0,0,0,0,0,-4.5796,-4.5868,-4.5864,-4.5883,-4.5984,-4.606,-4.6073,-4.6089,-4.6064,-4.6099,-4.6127,-4.6118,-4.6267,-4.6231,-4.6249,-4.6294,-4.6443,-4.6449,-4.6455,-4.6482,-4.6494,-4.6503,0,0,0,0,0,0,-4.5817,-4.5875,-4.5872,-4.5963,-4.6007,-4.6058,-4.6103,-4.6101,-4.6152,-4.6147,-4.6164,-4.6177,-4.6259,-4.6285,-4.6244,-4.6385,-4.6351,-4.6361,-4.6365,-4.6377,-4.6385,-4.6376,-4.6219,0,0,0,0,0,-4.5832,-4.5889,-4.5937,-4.6012,-4.6035,-4.6065,-4.6099,-4.6107,-4.6153,-4.6172,-4.6205,-4.625,-4.6306,-4.6343,-4.6398,-4.649,-4.6502,-4.653,-4.6539,-4.6546,-4.6554,-4.6604,-4.6617,-4.6479,-4.6479,-4.6479,0,0,-4.5864,-4.5903,-4.5938,-4.6018,-4.6052,-4.6111,-4.6081,-4.6144,-4.6187,-4.6181,-4.626,-4.6286,-4.6337,-4.6425,-4.6465,-4.6449,-4.6595,-4.6554,-4.656,-4.6564,-4.6612,-4.6625,-4.6637,-4.6484,-4.6483,-4.6482,0,0,-4.5951,-4.5987,-4.6053,-4.6089,-4.6142,-4.6163,-4.6179,-4.6231,-4.6248,-4.6328,-4.6324,-4.6376,-4.6473,-4.6509,-4.6541,-4.6642,-4.6636,-4.666,-4.6705,-4.6753,-4.6764,-4.6774,-4.6809,-4.6821,-4.6668,-4.6668,-4.6668,0,-4.5984,-4.6072,-4.6088,-4.6151,-4.6186,-4.6184,-4.6251,-4.6285,-4.6353,-4.6377,-4.6359,-4.648,-4.6515,-4.661,-4.6635,-4.6661,-4.6679,-4.6652,-4.6761,-4.6771,-4.6781,-4.6814,-4.6827,-4.667,-4.667,-4.667,-4.667,0,-4.6108,-4.617,-4.6217,-4.6283,-4.6323,-4.6388,-4.6414,-4.6453,-4.6458,-4.648,-4.6561,-4.6602,-4.6664,-4.6688,-4.6694,-4.6784,-4.6772,-4.6758,-4.6723,-4.6796,-4.6827,-4.684,-4.6674,-4.6673,-4.6672,-4.6672,0,0,-4.6211,-4.6285,-4.6302,-4.6332,-4.6391,-4.6438,-4.6503,-4.6564,-4.6597,-4.6644,-4.6698,-4.6781,-4.6768,-4.6803,-4.6813,-4.6856,-4.6932,-4.6835,-4.6837,-4.685,-4.7033,-4.7042,-4.7057,-4.6929,-4.6931,-4.6933,-4.7028,0,-4.6303,-4.6418,-4.6434,-4.6535,-4.6591,-4.659,-4.6646,-4.6688,-4.6711,-4.6761,-4.6786,-4.6844,-4.6822,-4.6844,-4.6886,-4.6913,-4.6968,-4.6907,-4.6978,-4.698,-4.6964,-4.7074,-4.7084,-4.7171,-4.7041,-4.7043,-4.7044,0,-4.6425,-4.6476,-4.6583,-4.6633,-4.6657,-4.6708,-4.6765,-4.6814,-4.6861,-4.6874,-4.6914,-4.6919,-4.6985,-4.6949,-4.7041,-4.6999,-4.7029,-4.7047,-4.7051,-4.7057,-4.7015,-4.7081,-4.72,-4.7212,-4.7064,-4.7063,-4.7061,0,-4.6488,-4.6583,-4.6658,-4.6684,-4.6746,-4.6781,-4.6808,-4.6853,-4.6889,-4.6939,-4.6962,-4.7019,-4.705,-4.7095,-4.7114,-4.7086,-4.7204,-4.717,-4.7216,-4.7216,-4.7239,-4.7237,-4.7363,-4.7262,-4.7262,-4.7261,-4.7261,0,-4.6588,-4.6653,-4.6687,-4.6733,-4.6806,-4.6824,-4.6896,-4.6922,-4.6962,-4.7013,-4.7016,-4.7064,-4.7088,-4.7139,-4.7156,-4.7228,-4.7243,-4.7255,-4.7258,-4.7253,-4.7252,-4.7272,-4.7266,-4.7265,-4.7264,-4.7264,-4.7263,0,-4.6669,-4.6695,-4.6777,-4.6828,-4.6843,-4.6894,-4.6938,-4.6983,-4.7005,-4.707,-4.7086,-4.7121,-4.7181,-4.7206,-4.728,-4.7291,-4.7374,-4.7373,-4.7358,-4.7358,-4.7402,-4.7397,-4.7544,-4.7564,-4.7451,-4.7452,-4.7453,0,-4.673,-4.678,-4.6837,-4.6871,-4.69,-4.6955,-4.6992,-4.7012,-4.705,-4.7107,-4.7145,-4.7206,-4.7255,-4.7352,-4.7384,-4.7441,-4.744,-4.7488,-4.7449,-4.7443,-4.7439,-4.7435,-4.744,-4.7495,-4.7496,-4.7497,-4.7498,0,-4.6836,-4.6846,-4.6898,-4.6955,-4.6998,-4.7044,-4.7089,-4.7117,-4.7144,-4.7186,-4.7248,-4.7287,-4.7363,-4.7422,-4.7481,-4.7509,-4.7508,-4.751,-4.7523,-4.7518,-4.7507,-4.7512,-4.7376,-4.7506,-4.7505,-4.7505,-4.7504,-4.7504,-4.6908,-4.6952,-4.6999,-4.7056,-4.7092,-4.7134,-4.7178,-4.7206,-4.7258,-4.7321,-4.733,-4.7397,-4.7443,-4.7521,-4.7551,-4.7603,-4.7591,-4.7611,-4.7615,-4.7619,-4.7621,-4.75,-4.7614,-4.7614,-4.7614,-4.7614,-4.7614,0,-4.7013,-4.7043,-4.7096,-4.7158,-4.7203,-4.7199,-4.7248,-4.7286,-4.7344,-4.7388,-4.7436,-4.7507,-4.7565,-4.7602,-4.766,-4.7695,-4.7696,-4.7709,-4.7706,-4.7712,-4.763,-4.7612,-4.7708,-4.7708,-4.7707,-4.7707,-4.7707,-4.7707,-4.7072,-4.7146,-4.7162,-4.7253,-4.7282,-4.7347,-4.7375,-4.7413,-4.7448,-4.7527,-4.7575,-4.7599,-4.7639,-4.7701,-4.7754,-4.7763,-4.7783,-4.7798,-4.7806,-4.7728,-4.7718,-4.7709,-4.7692,-4.7803,-4.7803,-4.7883,-4.7884,-4.7885]},{"header":{"parameterUnit":"m.s-1","parameterCategory":1,"la1":30.2991,"la2":30.254,"lo1":-89.0895,"lo2":-89.0444,"dy":0.0017,"dx":0.0017,"nx":28,"ny":28,"refTime":"2025-04-19T09:00:00:Z","depth":0,"parameterNumber":3,"parameterNumberName":"V-component_of_WINDS"},"data":[0,0,0,0,0,0,0,0,0,0,0,0,0,0,0,0,0,0,0,0,0,0,0,0,0,0,0,0,0,0,0,0,0,0,0,0,0,0,0,0,0,0,0,0,0,0,0,0,0,0,0,0,0,0,0,0,0,0,3.7578,3.7579,0,3.7639,3.764,3.7641,3.763,3.7629,3.7628,3.7627,3.7685,3.7688,3.769,0,0,0,0,0,0,0,0,0,0,0,0,0,3.7449,3.7452,3.7578,3.7579,3.758,3.7639,3.764,3.7641,3.763,3.7629,3.7628,3.7627,3.7684,3.7687,3.769,0,0,0,0,0,0,0,0,0,0,0,0,0,3.7507,3.7452,3.7578,3.7582,3.7583,3.7639,3.764,3.7641,3.7631,3.7629,3.7627,3.7626,3.7683,3.7687,3.7691,3.7746,0,0,3.7702,3.7704,0,0,0,0,0,0,0,0,3.7504,3.7512,3.7581,3.7582,3.7583,3.7626,3.7616,3.7676,3.7631,3.7612,3.7627,3.7625,3.7666,3.7671,3.7686,3.7748,3.7751,3.7703,3.7705,3.7707,3.7708,0,0,0,0,0,0,0,3.75,3.7509,3.7602,3.7582,3.7583,3.7579,3.7586,3.7627,3.7647,3.7614,3.7613,3.7621,3.7667,3.7683,3.7687,3.7752,3.7702,3.7706,3.7708,3.771,3.7863,3.7865,0,0,0,0,0,0,3.7495,3.7506,3.76,3.7604,3.7539,3.7583,3.759,3.7613,3.7647,3.7651,3.7622,3.762,3.7677,3.7683,3.7689,3.7757,3.7707,3.771,3.7712,3.7862,3.7864,3.7866,0,0,0,0,0,0,3.7493,3.7504,3.7598,3.7555,3.7567,3.7587,3.7613,3.7616,3.7632,3.7653,3.7656,3.7635,3.7676,3.7684,3.7732,3.7759,3.7712,3.7715,3.786,3.7862,3.7865,3.7893,0,0,0,0,0,0,3.7489,3.7503,3.7525,3.7556,3.7569,3.7641,3.7615,3.7618,3.7639,3.7637,3.7666,3.7669,3.7675,3.7727,3.7736,3.7764,3.7718,3.7857,3.7861,3.7864,3.789,3.7896,3.7902,0,0,0,0,0,3.7484,3.7529,3.7526,3.7538,3.7597,3.7643,3.765,3.7657,3.7641,3.7663,3.7677,3.7668,3.7755,3.7732,3.7742,3.7771,3.7856,3.786,3.7864,3.7887,3.7895,3.7902,0,0,0,0,0,0,3.7499,3.7533,3.753,3.7587,3.7612,3.7641,3.7669,3.7665,3.7695,3.7692,3.7698,3.7704,3.7754,3.7767,3.7741,3.7827,3.7803,3.7809,3.7817,3.7825,3.783,3.7827,3.7721,0,0,0,0,0,3.7509,3.7545,3.7572,3.7619,3.7632,3.7648,3.7668,3.7672,3.7698,3.7708,3.7726,3.775,3.7783,3.7804,3.7835,3.7891,3.7898,3.7916,3.7922,3.7927,3.7933,3.7965,3.7973,3.7879,3.7879,3.7879,0,0,3.753,3.7553,3.7575,3.7623,3.7643,3.7679,3.7657,3.7696,3.7722,3.7713,3.7761,3.7775,3.7802,3.7855,3.7879,3.7868,3.796,3.7932,3.7936,3.7939,3.797,3.7979,3.7987,3.7882,3.7881,3.7881,0,0,3.7587,3.7607,3.765,3.7671,3.7703,3.7713,3.7723,3.7753,3.7762,3.7811,3.7805,3.7836,3.7891,3.7912,3.793,3.7995,3.7989,3.8005,3.8037,3.8068,3.8075,3.8082,3.8106,3.8115,3.801,3.801,3.801,0,3.7608,3.7664,3.7671,3.7712,3.7733,3.7728,3.7771,3.779,3.7829,3.7844,3.783,3.7902,3.792,3.7978,3.7994,3.8008,3.802,3.8002,3.8074,3.808,3.8087,3.811,3.8119,3.8012,3.8012,3.8012,3.8011,0,3.7689,3.7728,3.7758,3.7798,3.7823,3.7864,3.7877,3.79,3.7901,3.7913,3.7962,3.7984,3.802,3.8034,3.8034,3.8093,3.8085,3.8072,3.8048,3.8097,3.812,3.8129,3.8015,3.8014,3.8013,3.8013,0,0,3.7757,3.7803,3.7814,3.7833,3.7867,3.7897,3.7937,3.7974,3.7995,3.8022,3.8056,3.8104,3.8093,3.8113,3.8116,3.8143,3.8195,3.8127,3.8128,3.814,3.8261,3.8271,3.8282,3.8191,3.8192,3.8194,3.8259,0,3.7819,3.7892,3.7901,3.7966,3.8002,3.7998,3.8033,3.8058,3.807,3.8101,3.8113,3.8148,3.813,3.8143,3.8169,3.8183,3.8219,3.8178,3.8222,3.8224,3.8217,3.8293,3.8304,3.8365,3.8268,3.8269,3.827,0,3.79,3.7932,3.8001,3.8033,3.8048,3.808,3.8115,3.8145,3.8172,3.8179,3.8202,3.8202,3.8243,3.8216,3.8273,3.8245,3.8263,3.8272,3.8275,3.828,3.8251,3.8302,3.8384,3.8394,3.8284,3.8283,3.8282,0,3.7945,3.8005,3.8055,3.807,3.8107,3.813,3.8146,3.8172,3.8194,3.8224,3.8239,3.8272,3.8291,3.8317,3.8325,3.8305,3.8382,3.8356,3.8388,3.8388,3.8406,3.8405,3.8494,3.8415,3.8415,3.8415,3.8415,0,3.8013,3.8056,3.8076,3.8106,3.8154,3.8163,3.8209,3.8224,3.8248,3.828,3.8278,3.8308,3.8317,3.8349,3.8355,3.8402,3.8409,3.8416,3.8417,3.8417,3.8417,3.843,3.8427,3.8417,3.8417,3.8416,3.8416,0,3.8072,3.8086,3.8141,3.8172,3.8181,3.8215,3.8241,3.827,3.8281,3.8323,3.8333,3.8351,3.8388,3.8399,3.8443,3.8448,3.8503,3.8499,3.8494,3.8495,3.8528,3.8525,3.863,3.8644,3.8555,3.8555,3.8556,0,3.8115,3.8149,3.8184,3.8207,3.8225,3.8261,3.8284,3.8293,3.8317,3.8352,3.8377,3.8414,3.8445,3.8505,3.8521,3.8555,3.8553,3.8587,3.8558,3.8557,3.8555,3.8554,3.8558,3.8593,3.8594,3.8595,3.8596,0,3.8192,3.8197,3.8232,3.8269,3.8297,3.8326,3.8354,3.8373,3.8386,3.8413,3.8452,3.8476,3.8522,3.856,3.8594,3.8609,3.8605,3.8605,3.8614,3.8615,3.8611,3.8615,3.8511,3.8602,3.8602,3.8601,3.8601,3.8601,3.8245,3.8275,3.8305,3.8344,3.8366,3.8393,3.8422,3.8438,3.8472,3.8512,3.8514,3.8557,3.8584,3.863,3.8647,3.868,3.867,3.8684,3.8687,3.8691,3.8695,3.8605,3.8686,3.8686,3.8686,3.8686,3.8686,0,3.8323,3.8342,3.8377,3.8418,3.8448,3.8442,3.8473,3.8499,3.8537,3.8563,3.8594,3.8639,3.8675,3.8695,3.8731,3.8753,3.8752,3.8762,3.8762,3.8765,3.8701,3.869,3.8763,3.8763,3.8763,3.8763,3.8763,3.8763,3.8367,3.8418,3.8427,3.8489,3.8508,3.8551,3.857,3.8594,3.8615,3.8666,3.8697,3.871,3.8733,3.8771,3.8804,3.8809,3.8822,3.8834,3.8838,3.8778,3.877,3.8762,3.8752,3.8837,3.8837,3.89,3.89,3.8901]}]]